| time (UTC) | temp F | wind direction | speed knots | gust knots | rain 1hr in | rain 24hr in | rain mn in | humidity % | barometer mb |
| 20260510071558 | 68 | 193 | 0.0 | 2.6 | 0.00 | 0.00 | 0.00 | 78 | 1009.7 |
| 20260510070056 | 68 | 0 | 0.0 | 1.7 | 0.00 | 0.00 | 0.00 | 77 | 1009.8 |
| 20260510064557 | 69 | 0 | 0.0 | 1.7 | 0.00 | 0.00 | 0.00 | 76 | 1009.9 |
| 20260510063057 | 69 | 0 | 0.9 | 3.5 | 0.00 | 0.00 | 0.00 | 75 | 1010.1 |
| 20260510061557 | 70 | 0 | 0.0 | 2.6 | 0.00 | 0.00 | 0.00 | 74 | 1010.2 |
| 20260510060057 | 70 | 194 | 0.9 | 2.6 | 0.00 | 0.00 | 0.00 | 72 | 1010.2 |
| 20260510054555 | 71 | 194 | 0.9 | 3.5 | 0.00 | 0.00 | 0.00 | 71 | 1010.2 |
| 20260510053055 | 72 | 194 | 1.7 | 5.2 | 0.00 | 0.00 | 0.00 | 69 | 1010.3 |
| 20260510051557 | 72 | 187 | 3.5 | 7.0 | 0.00 | 0.00 | 0.00 | 68 | 1010.3 |
| 20260510050058 | 72 | 180 | 1.7 | 5.2 | 0.00 | 0.00 | 0.00 | 68 | 1010.4 |
| 20260510044558 | 72 | 184 | 2.6 | 5.2 | 0.00 | 0.00 | 0.00 | 68 | 1010.4 |
| 20260510043056 | 72 | 182 | 0.9 | 3.5 | 0.00 | 0.00 | 0.00 | 68 | 1010.4 |
| 20260510041556 | 73 | 0 | 0.9 | 3.5 | 0.00 | 0.00 | 0.00 | 67 | 1010.4 |
| 20260510040055 | 74 | 183 | 1.7 | 6.1 | 0.00 | 0.00 | 0.00 | 64 | 1010.2 |
| 20260510034556 | 75 | 178 | 1.7 | 5.2 | 0.00 | 0.00 | 0.00 | 62 | 1010.3 |
| 20260510033129 | 75 | 142 | 0.9 | 2.6 | 0.00 | 0.00 | 0.00 | 61 | 1010.4 |
| 20260510031554 | 76 | 142 | 0.0 | 1.7 | 0.00 | 0.00 | 0.00 | 58 | 1010.2 |
| 20260510030055 | 77 | 142 | 0.0 | 3.5 | 0.00 | 0.00 | 0.00 | 56 | 1010.0 |
| 20260510024606 | 78 | 141 | 0.9 | 3.5 | 0.00 | 0.00 | 0.00 | 54 | 1009.8 |
| 20260510023056 | 78 | 151 | 0.9 | 2.6 | 0.00 | 0.00 | 0.00 | 51 | 1009.5 |
| 20260510021558 | 79 | 151 | 0.9 | 2.6 | 0.00 | 0.00 | 0.00 | 49 | 1009.4 |
| 20260510020058 | 80 | 150 | 0.9 | 2.6 | 0.00 | 0.00 | 0.00 | 48 | 1009.2 |
| 20260510014556 | 81 | 0 | 0.0 | 4.3 | 0.00 | 0.00 | 0.00 | 47 | 1008.9 |
| 20260510013054 | 83 | 159 | 0.9 | 4.3 | 0.00 | 0.00 | 0.00 | 45 | 1008.7 |
| 20260510011556 | 84 | 165 | 0.0 | 3.5 | 0.00 | 0.00 | 0.00 | 42 | 1008.7 |
| 20260510010058 | 86 | 165 | 0.9 | 3.5 | 0.00 | 0.00 | 0.00 | 39 | 1008.6 |
| 20260510004557 | 87 | 148 | 0.9 | 5.2 | 0.00 | 0.00 | 0.00 | 36 | 1008.5 |
| 20260510003105 | 89 | 159 | 0.9 | 6.1 | 0.00 | 0.00 | 0.00 | 32 | 1008.5 |
| 20260510001602 | 89 | 167 | 3.5 | 7.0 | 0.00 | 0.00 | 0.00 | 34 | 1008.4 |
| 20260510000057 | 90 | 153 | 1.7 | 5.2 | 0.00 | 0.00 | 0.00 | 32 | 1008.4 |
| 20260509234614 | 91 | 123 | 1.7 | 6.1 | 0.00 | 0.00 | 0.00 | 31 | 1008.3 |
| 20260509233057 | 91 | 192 | 2.6 | 6.1 | 0.00 | 0.00 | 0.00 | 30 | 1008.3 |
| 20260509231602 | 91 | 142 | 2.6 | 7.0 | 0.00 | 0.00 | 0.00 | 30 | 1008.4 |
| 20260509224601 | 91 | 188 | 4.3 | 9.6 | 0.00 | 0.00 | 0.00 | 33 | 1008.6 |
| 20260509223104 | 90 | 202 | 5.2 | 10.4 | 0.00 | 0.00 | 0.00 | 31 | 1008.6 |
| 20260509221558 | 91 | 123 | 1.7 | 11.3 | 0.00 | 0.00 | 0.00 | 30 | 1008.7 |
| 20260509220055 | 91 | 168 | 2.6 | 8.7 | 0.00 | 0.00 | 0.00 | 34 | 1008.6 |
| 20260509214557 | 90 | 197 | 5.2 | 11.3 | 0.00 | 0.00 | 0.00 | 35 | 1008.8 |
| 20260509213058 | 91 | 181 | 2.6 | 8.7 | 0.00 | 0.00 | 0.00 | 35 | 1009.0 |
| 20260509211555 | 91 | 185 | 0.9 | 12.2 | 0.00 | 0.00 | 0.00 | 35 | 1009.3 |
| 20260509210104 | 90 | 360 | 2.6 | 10.4 | 0.00 | 0.00 | 0.00 | 36 | 1009.5 |
| 20260509204605 | 89 | 175 | 2.6 | 10.4 | 0.00 | 0.00 | 0.00 | 38 | 1009.7 |
| 20260509203101 | 89 | 194 | 1.7 | 8.7 | 0.00 | 0.00 | 0.00 | 34 | 1009.9 |
| 20260509201554 | 88 | 186 | 2.6 | 8.7 | 0.00 | 0.00 | 0.00 | 38 | 1010.1 |
| 20260509200055 | 89 | 181 | 4.3 | 12.2 | 0.00 | 0.00 | 0.00 | 41 | 1010.4 |
| 20260509194553 | 88 | 192 | 4.3 | 11.3 | 0.00 | 0.00 | 0.00 | 43 | 1010.6 |
| 20260509193055 | 88 | 175 | 3.5 | 12.2 | 0.00 | 0.00 | 0.00 | 41 | 1010.8 |
| 20260509191555 | 87 | 195 | 3.5 | 11.3 | 0.00 | 0.00 | 0.00 | 44 | 1010.8 |
| 20260509190056 | 87 | 159 | 4.3 | 10.4 | 0.00 | 0.00 | 0.00 | 45 | 1011.0 |
| 20260509184553 | 86 | 202 | 5.2 | 11.3 | 0.00 | 0.00 | 0.00 | 43 | 1011.0 |
| 20260509183055 | 85 | 172 | 3.5 | 10.4 | 0.00 | 0.00 | 0.00 | 48 | 1011.3 |
| 20260509181611 | 84 | 175 | 3.5 | 11.3 | 0.00 | 0.00 | 0.00 | 50 | 1011.6 |
| 20260509180113 | 83 | 175 | 4.3 | 10.4 | 0.00 | 0.00 | 0.00 | 55 | 1011.9 |
| 20260509174558 | 82 | 185 | 3.5 | 9.6 | 0.00 | 0.00 | 0.00 | 56 | 1012.2 |
| 20260509173109 | 82 | 196 | 3.5 | 7.8 | 0.00 | 0.00 | 0.00 | 55 | 1012.2 |
| 20260509171604 | 82 | 191 | 1.7 | 8.7 | 0.00 | 0.00 | 0.00 | 55 | 1012.4 |
| 20260509164601 | 79 | 180 | 3.5 | 7.0 | 0.00 | 0.00 | 0.00 | 63 | 1012.5 |
| 20260509163101 | 78 | 196 | 1.7 | 7.8 | 0.00 | 0.00 | 0.00 | 69 | 1012.7 |
| 20260509161603 | 78 | 178 | 2.6 | 7.8 | 0.00 | 0.00 | 0.00 | 71 | 1012.5 |
| 20260509160056 | 76 | 194 | 4.3 | 7.8 | 0.00 | 0.00 | 0.00 | 73 | 1012.5 |
| 20260509154612 | 75 | 169 | 3.5 | 7.8 | 0.00 | 0.00 | 0.00 | 76 | 1012.6 |
| 20260509153109 | 74 | 183 | 2.6 | 6.1 | 0.00 | 0.00 | 0.00 | 76 | 1012.7 |
| 20260509151609 | 74 | 177 | 2.6 | 7.0 | 0.00 | 0.00 | 0.00 | 77 | 1012.9 |
| 20260509150055 | 72 | 0 | 0.0 | 2.6 | 0.00 | 0.00 | 0.00 | 87 | 1012.9 |
| 20260509144555 | 69 | 290 | 1.7 | 3.5 | 0.00 | 0.00 | 0.00 | 94 | 1013.0 |
| 20260509143106 | 66 | 340 | 1.7 | 8.7 | 0.00 | 0.00 | 0.00 | 95 | 1013.1 |
| 20260509141555 | 65 | 9 | 2.6 | 7.8 | 0.00 | 0.00 | 0.00 | 95 | 1013.1 |
| 20260509140053 | 64 | 284 | 3.5 | 7.0 | 0.00 | 0.00 | 0.00 | 95 | 1013.0 |
| 20260509134556 | 63 | 350 | 3.5 | 7.8 | 0.00 | 0.00 | 0.00 | 95 | 1013.1 |
| 20260509133106 | 63 | 342 | 2.6 | 7.0 | 0.00 | 0.00 | 0.00 | 95 | 1013.1 |
| 20260509131553 | 62 | 344 | 3.5 | 7.0 | 0.00 | 0.00 | 0.00 | 94 | 1013.2 |
| 20260509130105 | 61 | 301 | 0.9 | 2.6 | 0.00 | 0.00 | 0.00 | 94 | 1012.8 |
| 20260509124553 | 60 | 301 | 0.9 | 2.6 | 0.00 | 0.00 | 0.00 | 94 | 1012.6 |
| 20260509123056 | 60 | 0 | 0.0 | 2.6 | 0.00 | 0.00 | 0.00 | 94 | 1012.4 |
| 20260509121555 | 59 | 0 | 0.9 | 3.5 | 0.00 | 0.00 | 0.00 | 94 | 1012.3 |
| 20260509120059 | 59 | 301 | 0.9 | 3.5 | 0.00 | 0.00 | 0.00 | 94 | 1012.2 |
| 20260509114554 | 58 | 150 | 0.9 | 2.6 | 0.00 | 0.00 | 0.00 | 93 | 1012.0 |
| 20260509113058 | 58 | 31 | 0.0 | 3.5 | 0.00 | 0.00 | 0.00 | 93 | 1011.7 |
| 20260509111553 | 59 | 0 | 0.0 | 2.6 | 0.00 | 0.00 | 0.00 | 93 | 1011.8 |
| 20260509110057 | 59 | 0 | 0.0 | 2.6 | 0.00 | 0.00 | 0.00 | 93 | 1011.8 |
| 20260509104608 | 59 | 0 | 0.0 | 2.6 | 0.00 | 0.00 | 0.00 | 93 | 1011.7 |
| 20260509103111 | 59 | 0 | 0.0 | 2.6 | 0.00 | 0.00 | 0.00 | 92 | 1011.9 |
| 20260509101557 | 59 | 0 | 0.0 | 1.7 | 0.00 | 0.00 | 0.00 | 92 | 1011.9 |
| 20260509100055 | 60 | 0 | 0.0 | 3.5 | 0.00 | 0.00 | 0.00 | 92 | 1011.9 |
| 20260509094555 | 59 | 0 | 0.0 | 2.6 | 0.00 | 0.00 | 0.00 | 92 | 1012.1 |
| 20260509093102 | 60 | 182 | 0.9 | 3.5 | 0.00 | 0.00 | 0.00 | 92 | 1011.8 |
| 20260509091557 | 60 | 182 | 1.7 | 2.6 | 0.00 | 0.00 | 0.00 | 91 | 1011.5 |
| 20260509090059 | 60 | 0 | 0.0 | 1.7 | 0.00 | 0.00 | 0.00 | 91 | 1012.1 |
| 20260509084607 | 60 | 0 | 0.0 | 1.7 | 0.00 | 0.00 | 0.00 | 90 | 1011.7 |
| 20260509083057 | 61 | 0 | 0.0 | 2.6 | 0.00 | 0.00 | 0.00 | 90 | 1011.5 |
| 20260509081557 | 61 | 183 | 1.7 | 5.2 | 0.00 | 0.00 | 0.00 | 91 | 1011.5 |
| 20260509080055 | 61 | 0 | 0.0 | 0.9 | 0.00 | 0.00 | 0.00 | 91 | 1011.8 |
| 20260509074558 | 60 | 0 | 0.9 | 4.3 | 0.00 | 0.00 | 0.00 | 90 | 1012.2 |
| 20260509073058 | 61 | 352 | 0.9 | 2.6 | 0.00 | 0.00 | 0.00 | 89 | 1012.2 |